LAN450 SPJC-SCEL

Flight info

Callsign LAN450
Flight time N/A
Altitude 37000
Route ILMAR UL302 SIMOK SIMOK7B
Aircraft B763/H-SDE3FGHIM3RWXY/LB1

Departure

Time 2026-04-28 18:40
Airport Jorge Chávez International Airport (SPJC)

Arrival

Time N/A
Airport Comodoro Arturo Merino Benítez International Airport (SCEL)
Time Latitude Longitude Altitude Speed Heading
2026-04-28 18:24 -12.02669 -77.10757 130 ft 0 kts 336°
2026-04-28 18:26 -12.02677 -77.10753 130 ft 2 kts 336°
2026-04-28 18:26 -12.02691 -77.10747 130 ft 2 kts 336°
2026-04-28 18:26 -12.02705 -77.10740 130 ft 2 kts 336°
2026-04-28 18:26 -12.02719 -77.10734 130 ft 2 kts 336°
2026-04-28 18:27 -12.02728 -77.10730 130 ft 2 kts 333°
2026-04-28 18:27 -12.02736 -77.10720 130 ft 1 kts 270°
2026-04-28 18:27 -12.02735 -77.10713 130 ft 0 kts 241°
2026-04-28 18:27 -12.02732 -77.10708 130 ft 0 kts 243°
2026-04-28 18:30 -12.02740 -77.10725 130 ft 8 kts 243°
2026-04-28 18:30 -12.02750 -77.10745 130 ft 9 kts 245°
2026-04-28 18:30 -12.02777 -77.10821 130 ft 5 kts 269°
2026-04-28 18:30 -12.02763 -77.10847 130 ft 3 kts 319°
2026-04-28 18:31 -12.02743 -77.10857 130 ft 3 kts 333°
2026-04-28 18:31 -12.02653 -77.10900 130 ft 16 kts 335°
2026-04-28 18:31 -12.02622 -77.10914 130 ft 5 kts 335°
2026-04-28 18:31 -12.02562 -77.10941 130 ft 10 kts 336°
2026-04-28 18:32 -12.02511 -77.10987 130 ft 9 kts 303°
2026-04-28 18:32 -12.02481 -77.11042 130 ft 8 kts 298°
2026-04-28 18:32 -12.02448 -77.11089 130 ft 6 kts 326°
2026-04-28 18:32 -12.02405 -77.11113 130 ft 7 kts 333°
2026-04-28 18:33 -12.02359 -77.11135 130 ft 8 kts 335°
2026-04-28 18:33 -12.02287 -77.11169 130 ft 14 kts 334°
2026-04-28 18:33 -12.02189 -77.11219 130 ft 15 kts 333°
2026-04-28 18:33 -12.02090 -77.11269 131 ft 15 kts 334°
2026-04-28 18:34 -12.01993 -77.11317 131 ft 15 kts 334°
2026-04-28 18:34 -12.01896 -77.11364 131 ft 15 kts 334°
2026-04-28 18:34 -12.01802 -77.11409 130 ft 14 kts 334°
2026-04-28 18:34 -12.01714 -77.11455 131 ft 14 kts 335°
2026-04-28 18:35 -12.01625 -77.11498 131 ft 13 kts 334°
2026-04-28 18:35 -12.01539 -77.11540 131 ft 13 kts 334°
2026-04-28 18:35 -12.01454 -77.11581 131 ft 13 kts 335°
2026-04-28 18:35 -12.01370 -77.11620 131 ft 13 kts 335°
2026-04-28 18:36 -12.01289 -77.11661 131 ft 12 kts 334°
2026-04-28 18:36 -12.01209 -77.11701 131 ft 12 kts 330°
2026-04-28 18:36 -12.01131 -77.11742 131 ft 12 kts 334°
2026-04-28 18:36 -12.01055 -77.11779 131 ft 12 kts 334°
2026-04-28 18:37 -12.00980 -77.11816 131 ft 11 kts 333°
2026-04-28 18:37 -12.00907 -77.11852 131 ft 11 kts 334°
2026-04-28 18:37 -12.00834 -77.11887 131 ft 12 kts 334°
2026-04-28 18:37 -12.00720 -77.11945 131 ft 21 kts 330°
2026-04-28 18:38 -12.00684 -77.12035 131 ft 11 kts 251°
2026-04-28 18:38 -12.00713 -77.12098 131 ft 4 kts 212°
2026-04-28 18:38 -12.00749 -77.12105 131 ft 5 kts 189°
2026-04-28 18:38 -12.00785 -77.12116 131 ft 4 kts 213°
2026-04-28 18:39 -12.00798 -77.12118 131 ft 0 kts 168°
2026-04-28 18:39 -12.00803 -77.12116 131 ft 2 kts 154°
2026-04-28 18:39 -12.00805 -77.12114 131 ft 1 kts 154°
2026-04-28 18:39 -12.00993 -77.12022 131 ft 71 kts 155°
2026-04-28 18:40 -12.01692 -77.11672 132 ft 149 kts 153°
2026-04-28 18:40 -12.02780 -77.11153 492 ft 184 kts 158°
2026-04-28 18:40 -12.04049 -77.10648 1189 ft 208 kts 159°
2026-04-28 18:40 -12.05337 -77.10030 2398 ft 212 kts 152°
2026-04-28 18:41 -12.06729 -77.09303 3241 ft 240 kts 152°
2026-04-28 18:41 -12.08296 -77.08498 4174 ft 266 kts 152°
2026-04-28 18:41 -12.09977 -77.07639 5517 ft 275 kts 152°
2026-04-28 18:41 -12.11763 -77.06724 6046 ft 317 kts 152°
2026-04-28 18:42 -12.14014 -77.05788 6037 ft 358 kts 165°
2026-04-28 18:42 -12.16423 -77.05503 6001 ft 341 kts 182°
2026-04-28 18:42 -12.18703 -77.05953 5995 ft 323 kts 201°
2026-04-28 18:42 -12.20603 -77.07046 5999 ft 310 kts 220°
2026-04-28 18:43 -12.22017 -77.08685 6004 ft 306 kts 240°
2026-04-28 18:43 -12.22845 -77.10666 6004 ft 301 kts 251°
2026-04-28 18:43 -12.23718 -77.12580 5994 ft 298 kts 239°
2026-04-28 18:43 -12.24856 -77.14329 5991 ft 295 kts 234°
2026-04-28 18:44 -12.26141 -77.16049 6023 ft 322 kts 231°
2026-04-28 18:44 -12.29549 -77.18733 7420 ft 292 kts 195°
2026-04-28 18:44 -12.31542 -77.18975 7652 ft 289 kts 177°
2026-04-28 18:45 -12.33566 -77.18813 7810 ft 290 kts 173°
2026-04-28 18:45 -12.35568 -77.18548 7966 ft 291 kts 170°
2026-04-28 18:45 -12.37582 -77.18204 8138 ft 291 kts 169°
2026-04-28 18:45 -12.39590 -77.17820 8314 ft 291 kts 168°
2026-04-28 18:46 -12.41563 -77.17423 8470 ft 292 kts 168°
2026-04-28 18:46 -12.43574 -77.17004 8630 ft 292 kts 168°
2026-04-28 18:46 -12.45564 -77.16584 8794 ft 293 kts 167°
2026-04-28 18:46 -12.47584 -77.16155 8952 ft 293 kts 167°
2026-04-28 18:47 -12.49575 -77.15729 9107 ft 294 kts 167°
2026-04-28 18:47 -12.51593 -77.15295 9246 ft 295 kts 167°
2026-04-28 18:47 -12.53614 -77.14862 9406 ft 295 kts 167°
2026-04-28 18:47 -12.59743 -77.13545 9854 ft 295 kts 168°
2026-04-28 18:48 -12.71977 -77.10914 10173 ft 299 kts 167°
2026-04-28 18:48 -12.84236 -77.08272 10213 ft 305 kts 167°
2026-04-28 18:48 -12.96986 -77.05524 10285 ft 310 kts 167°
2026-04-28 18:48 -13.09635 -77.02792 11935 ft 304 kts 166°
2026-04-28 18:49 -13.21405 -76.99111 15003 ft 284 kts 158°
2026-04-28 18:49 -13.25115 -76.97748 15987 ft 278 kts 162°
2026-04-28 18:49 -13.42273 -76.92539 20455 ft 239 kts 163°
2026-04-28 18:49 -13.51301 -76.89814 22746 ft 209 kts 162°
2026-04-28 18:50 -13.59103 -76.86901 22013 ft 193 kts 141°
2026-04-28 18:50 -13.62858 -76.83817 18802 ft 211 kts 142°
2026-04-28 18:50 -13.64110 -76.83282 18438 ft 209 kts 194°
2026-04-28 18:50 -13.65305 -76.84063 17936 ft 229 kts 258°
2026-04-28 18:51 -13.64884 -76.85532 17145 ft 255 kts 349°
2026-04-28 18:51 -13.63370 -76.85186 16985 ft 235 kts 64°
2026-04-28 18:51 -13.62933 -76.83808 17566 ft 192 kts 106°
2026-04-28 18:51 -13.63683 -76.82771 16524 ft 235 kts 186°
2026-04-28 18:52 -13.65394 -76.82979 16296 ft 247 kts 177°
2026-04-28 18:52 -13.66521 -76.83047 18086 ft 129 kts 188°
2026-04-28 18:52 -13.67483 -76.83208 16883 ft 203 kts 166°
2026-04-28 18:52 -13.68893 -76.82615 15868 ft 242 kts 137°
2026-04-28 18:53 -13.69928 -76.81577 16792 ft 192 kts 136°
2026-04-28 18:53 -13.71946 -76.79965 16497 ft 193 kts 146°
2026-04-28 18:53 -13.78942 -76.76192 16257 ft 189 kts 152°
2026-04-28 18:53 -13.86327 -76.72309 17374 ft 205 kts 153°
2026-04-28 18:54 -13.94497 -76.68203 17926 ft 230 kts 152°
2026-04-28 18:54 -14.03567 -76.63551 18408 ft 257 kts 153°
2026-04-28 18:54 -14.13689 -76.58383 18866 ft 286 kts 153°
2026-04-28 18:54 -14.24992 -76.52612 19243 ft 315 kts 153°
2026-04-28 18:55 -14.37647 -76.47028 19595 ft 345 kts 165°
2026-04-28 18:55 -14.47433 -76.45112 19940 ft 364 kts 174°
2026-04-28 18:55 -14.68179 -76.40593 20460 ft 402 kts 160°
2026-04-28 18:55 -14.84488 -76.35129 22800 ft 419 kts 168°
2026-04-28 18:56 -15.01758 -76.31502 26237 ft 428 kts 166°
2026-04-28 18:56 -15.19356 -76.26183 28771 ft 438 kts 167°
2026-04-28 18:56 -15.37245 -76.21394 31157 ft 446 kts 166°
2026-04-28 18:56 -15.55416 -76.16397 33054 ft 454 kts 167°
2026-04-28 18:57 -15.73924 -76.11266 35213 ft 460 kts 168°
2026-04-28 18:57 -15.92438 -76.06179 37587 ft 464 kts 168°
2026-04-28 18:57 -15.98731 -76.04441 36915 ft 485 kts 168°
2026-04-28 18:57 -16.02504 -76.03401 37080 ft 494 kts 168°
2026-04-28 18:58 -16.22730 -75.97810 36986 ft 507 kts 168°
2026-04-28 18:58 -16.43298 -75.92109 37055 ft 519 kts 168°
2026-04-28 18:58 -16.64472 -75.86229 37068 ft 530 kts 168°
2026-04-28 18:58 -16.86127 -75.80199 37054 ft 541 kts 168°
2026-04-28 18:59 -17.30650 -75.67756 37015 ft 556 kts 168°
2026-04-28 18:59 -17.75932 -75.55033 37069 ft 563 kts 168°
2026-04-28 19:00 -18.21137 -75.42275 37079 ft 563 kts 168°
2026-04-28 19:00 -18.66534 -75.28823 37027 ft 562 kts 168°
2026-04-28 19:01 -19.11779 -75.15243 37046 ft 561 kts 168°
2026-04-28 19:01 -19.56776 -75.01539 37043 ft 560 kts 168°
2026-04-28 19:02 -20.01804 -74.87775 37105 ft 559 kts 169°
2026-04-28 19:02 -20.46457 -74.74094 37094 ft 556 kts 168°
2026-04-28 19:03 -20.91203 -74.60242 37102 ft 555 kts 168°
2026-04-28 19:03 -21.35643 -74.46408 37088 ft 553 kts 169°
2026-04-28 19:04 -21.79703 -74.32641 37102 ft 552 kts 169°
2026-04-28 19:04 -22.24124 -74.18629 37030 ft 550 kts 169°
2026-04-28 19:05 -22.68063 -74.04681 37072 ft 547 kts 169°
2026-04-28 19:05 -23.11618 -73.90797 37080 ft 542 kts 169°
2026-04-28 19:06 -23.47875 -73.79150 37085 ft 540 kts 169°
2026-04-28 19:06 -23.98038 -73.62907 37097 ft 537 kts 169°
2026-04-28 19:07 -24.40854 -73.49003 37122 ft 532 kts 168°
2026-04-28 19:07 -24.83455 -73.35045 37118 ft 528 kts 167°
2026-04-28 19:08 -25.25439 -73.21198 37090 ft 524 kts 166°
2026-04-28 19:08 -25.66825 -73.07458 37098 ft 514 kts 166°
2026-04-28 19:09 -26.07474 -72.93863 37061 ft 495 kts 165°
2026-04-28 19:09 -26.26900 -72.87318 37149 ft 481 kts 165°
2026-04-28 19:09 -26.46220 -72.80798 37097 ft 471 kts 165°
2026-04-28 19:10 -26.82988 -72.68324 37089 ft 454 kts 165°
2026-04-28 19:10 -27.18615 -72.56161 37080 ft 439 kts 164°
2026-04-28 19:11 -27.53238 -72.44261 37077 ft 427 kts 165°
2026-04-28 19:11 -27.79056 -72.35365 37045 ft 415 kts 165°
2026-04-28 19:12 -28.11703 -72.24058 37006 ft 404 kts 165°
2026-04-28 19:12 -28.28899 -72.18075 37062 ft 394 kts 165°
2026-04-28 19:13 -28.33889 -72.16334 37076 ft 383 kts 165°
2026-04-28 19:13 -28.38740 -72.14640 37073 ft 373 kts 164°
2026-04-28 19:14 -28.43443 -72.12996 37070 ft 362 kts 165°
2026-04-28 19:14 -28.47973 -72.11410 37068 ft 351 kts 165°
2026-04-28 19:15 -28.52418 -72.09850 37068 ft 340 kts 165°
2026-04-28 19:15 -28.55953 -72.08605 37056 ft 331 kts 165°
2026-04-28 19:16 -28.60970 -72.06843 37084 ft 350 kts 165°
2026-04-28 19:16 -28.65440 -72.05264 37072 ft 353 kts 165°
2026-04-28 19:17 -28.69998 -72.03655 37082 ft 369 kts 164°
2026-04-28 19:17 -28.72395 -72.02809 37080 ft 383 kts 164°
2026-04-28 19:17 -28.74869 -72.01936 37088 ft 396 kts 165°
2026-04-28 19:18 -28.77424 -72.01032 37084 ft 410 kts 165°
2026-04-28 19:18 -28.80063 -72.00098 37074 ft 424 kts 165°
2026-04-28 19:18 -28.85375 -71.98216 37057 ft 410 kts 164°
2026-04-28 19:19 -28.90437 -71.96419 37055 ft 392 kts 165°
2026-04-28 19:19 -28.95313 -71.94688 37051 ft 375 kts 165°
2026-04-28 19:20 -28.99936 -71.93046 37041 ft 357 kts 165°
2026-04-28 19:20 -29.04361 -71.91472 37045 ft 339 kts 165°
2026-04-28 19:21 -29.08541 -71.89984 37040 ft 321 kts 165°
2026-04-28 19:21 -29.12478 -71.88581 37052 ft 301 kts 165°
2026-04-28 19:22 -29.14362 -71.87910 37044 ft 292 kts 165°
2026-04-28 19:22 -29.14982 -71.87689 37039 ft 288 kts 165°
2026-04-28 19:22 -29.17925 -71.86639 37035 ft 271 kts 165°
2026-04-28 19:22 -29.19605 -71.86039 37032 ft 259 kts 166°
2026-04-28 19:23 -29.21227 -71.85460 37045 ft 253 kts 166°
2026-04-28 19:23 -29.22839 -71.84887 37091 ft 257 kts 166°
2026-04-28 19:23 -29.24482 -71.84302 37085 ft 265 kts 166°
2026-04-28 19:23 -29.26202 -71.83689 37092 ft 273 kts 166°
2026-04-28 19:24 -29.27956 -71.83063 37083 ft 282 kts 166°
2026-04-28 19:24 -29.29755 -71.82420 37089 ft 291 kts 166°
2026-04-28 19:24 -29.31658 -71.81741 37079 ft 302 kts 165°
2026-04-28 19:24 -29.33584 -71.81052 37084 ft 312 kts 165°
2026-04-28 19:25 -29.35608 -71.80328 37083 ft 324 kts 165°
2026-04-28 19:25 -29.37709 -71.79576 37079 ft 336 kts 165°
2026-04-28 19:25 -29.39867 -71.78803 37077 ft 348 kts 165°
2026-04-28 19:25 -29.42117 -71.77998 37076 ft 361 kts 165°
2026-04-28 19:26 -29.44425 -71.77171 37071 ft 375 kts 165°
2026-04-28 19:26 -29.46854 -71.76299 37073 ft 389 kts 165°
2026-04-28 19:26 -29.49379 -71.75400 37065 ft 403 kts 165°
2026-04-28 19:26 -29.51965 -71.74483 37067 ft 417 kts 165°
2026-04-28 19:27 -29.54638 -71.73533 37068 ft 431 kts 165°
2026-04-28 19:27 -29.57441 -71.72536 37065 ft 444 kts 165°
2026-04-28 19:27 -29.60278 -71.71526 37055 ft 455 kts 165°
2026-04-28 19:27 -29.63200 -71.70486 37048 ft 462 kts 165°
2026-04-28 19:28 -29.69002 -71.68416 37048 ft 453 kts 165°
2026-04-28 19:28 -29.74675 -71.66390 37050 ft 446 kts 165°
2026-04-28 19:29 -29.79350 -71.64719 37040 ft 435 kts 165°
2026-04-28 19:29 -29.85685 -71.62452 37047 ft 422 kts 165°
2026-04-28 19:30 -29.90957 -71.60564 37049 ft 413 kts 165°
2026-04-28 19:30 -29.96134 -71.58707 37053 ft 405 kts 165°
2026-04-28 19:31 -30.01231 -71.56879 37053 ft 397 kts 165°
2026-04-28 19:31 -30.06208 -71.55091 37041 ft 390 kts 165°
2026-04-28 19:32 -30.11097 -71.53332 37053 ft 382 kts 165°
2026-04-28 19:32 -30.15911 -71.51598 37051 ft 376 kts 165°
2026-04-28 19:33 -30.20631 -71.49898 37056 ft 370 kts 165°
2026-04-28 19:33 -30.25290 -71.48216 37058 ft 363 kts 165°
2026-04-28 19:34 -30.29682 -71.46038 37066 ft 360 kts 156°
2026-04-28 19:34 -30.33899 -71.43481 37067 ft 353 kts 156°
2026-04-28 19:35 -30.38053 -71.40932 37083 ft 356 kts 156°
2026-04-28 19:35 -30.42254 -71.38340 37093 ft 365 kts 156°
2026-04-28 19:36 -30.46603 -71.35649 37097 ft 375 kts 156°
2026-04-28 19:36 -30.51043 -71.32896 37098 ft 385 kts 156°
2026-04-28 19:37 -30.54839 -71.30541 37103 ft 394 kts 156°
2026-04-28 19:37 -30.60278 -71.27163 37101 ft 406 kts 155°
2026-04-28 19:38 -30.65070 -71.24183 37102 ft 415 kts 155°
2026-04-28 19:38 -30.69997 -71.21114 37108 ft 424 kts 155°
2026-04-28 19:39 -30.74979 -71.18008 37103 ft 432 kts 155°
2026-04-28 19:39 -30.80031 -71.14852 37108 ft 428 kts 155°
2026-04-28 19:40 -30.84976 -71.11760 37126 ft 421 kts 155°
2026-04-28 19:40 -30.89868 -71.08700 37140 ft 415 kts 156°
2026-04-28 19:41 -30.94681 -71.05684 37151 ft 409 kts 155°
2026-04-28 19:41 -30.99446 -71.02697 37160 ft 404 kts 155°
2026-04-28 19:42 -31.04164 -70.99734 37161 ft 399 kts 156°
2026-04-28 19:42 -31.08056 -70.97289 37185 ft 395 kts 155°
2026-04-28 19:43 -31.11140 -70.95350 36948 ft 397 kts 155°
2026-04-28 19:43 -31.13452 -70.93896 36703 ft 398 kts 155°
2026-04-28 19:43 -31.18024 -70.91012 36704 ft 382 kts 156°
2026-04-28 19:44 -31.20235 -70.89618 36486 ft 379 kts 156°
2026-04-28 19:44 -31.22439 -70.88230 36122 ft 380 kts 155°
2026-04-28 19:44 -31.24660 -70.86829 35777 ft 380 kts 156°
2026-04-28 19:44 -31.26871 -70.85433 35330 ft 383 kts 155°
2026-04-28 19:45 -31.29133 -70.84006 34832 ft 387 kts 155°
2026-04-28 19:45 -31.31453 -70.82729 34336 ft 387 kts 163°
2026-04-28 19:45 -31.33911 -70.81985 33867 ft 387 kts 173°
2026-04-28 19:45 -31.36495 -70.81802 33414 ft 389 kts 182°
2026-04-28 19:46 -31.39084 -70.81937 32959 ft 393 kts 183°
2026-04-28 19:46 -31.41678 -70.82111 32501 ft 397 kts 184°
2026-04-28 19:46 -31.44333 -70.82323 32034 ft 400 kts 184°
2026-04-28 19:46 -31.46989 -70.82555 31571 ft 404 kts 185°
2026-04-28 19:47 -31.49656 -70.82801 31112 ft 407 kts 185°
2026-04-28 19:47 -31.52354 -70.83057 30645 ft 411 kts 185°
2026-04-28 19:47 -31.55106 -70.83323 30171 ft 414 kts 185°
2026-04-28 19:47 -31.57850 -70.83591 29703 ft 417 kts 186°
2026-04-28 19:48 -31.60600 -70.83861 29226 ft 420 kts 186°
2026-04-28 19:48 -31.63399 -70.84136 28753 ft 423 kts 186°
2026-04-28 19:48 -31.66244 -70.84418 28277 ft 423 kts 186°
2026-04-28 19:48 -31.69118 -70.84702 27795 ft 422 kts 186°
2026-04-28 19:49 -31.71932 -70.84982 27183 ft 425 kts 186°
2026-04-28 19:49 -31.74775 -70.85233 26453 ft 422 kts 183°
2026-04-28 19:49 -31.77583 -70.85170 25782 ft 414 kts 181°
2026-04-28 19:49 -31.80385 -70.85097 25092 ft 406 kts 181°
2026-04-28 19:50 -31.85660 -70.84923 24047 ft 386 kts 181°
2026-04-28 19:50 -31.88239 -70.84834 23630 ft 376 kts 181°